Regional Weather Roundup
Issued by NWS Charleston, SC

Current Version | Previous Version | Graphics & Text | Print | Product List | Glossary On
Versions: 1 2 3 4 5 6 7 8 9 10 11 12 13 14 15 16 17 18 19 20 21 22 23 24 25 26 27 28 29 30 31 32 33 34 35 36 37 38 39 40 41 42 43 44 45 46 47 48 49 50
000
ASUS42 KCHS 281027
RWRCHS

REGIONAL WEATHER ROUNDUP
NATIONAL WEATHER SERVICE CHARLESTON SC
600 AM EDT SAT MAR 28 2015

NOTE: "FAIR" INDICATES FEW OR NO CLOUDS BELOW 12,000 FEET WITH NO
SIGNIFICANT WEATHER AND/OR OBSTRUCTIONS TO VISIBILITY.

NOT ALL STATIONS ARE QUALITY CONTROLLED BY THE NATIONAL
WEATHER SERVICE. USE DATA WITH CAUTION...ESPECIALLY
DEWPOINT OBSERVATIONS.

SCZ027-030-031-034>040-042>050-281100-
...SOUTHEAST SOUTH CAROLINA...

CITY           SKY/WX    TMP DP  RH WIND       PRES   REMARKS
N CHARLESTON   PTCLDY    44  42  93 W5        29.96R
WATERFRONT PRK NOT AVBL
MOUNT PLEASANT FAIR      45  43  93 W7        29.97R
PINOPOLIS        N/A     50  43  76 NW14      29.86S
MONCKS CORNER  CLOUDY    43  41  93 CALM      29.96R
SUMMERVILLE    FAIR      45  43  93 W3        29.97S
BEAUFORT MCAS  CLEAR     47  39  74 NW12      29.97R
BEAUFORT ARPT  FAIR      46  41  81 NW13G20   29.98R
HILTON HEAD IS NOT AVBL
WALTERBORO     SUNNY     41  41 100 W5        29.99R
ALLENDALE      FAIR      43  37  81 CALM      29.99R

...SOUTHERN MIDLANDS AND PEE DEE...

CITY           SKY/WX    TMP DP  RH WIND       PRES   REMARKS
GEORGETOWN     NOT AVBL
KINGSTREE      NOT AVBL
ORANGEBURG     CLEAR     42  36  79 NW5       29.97R
BARNWELL       FAIR      41  37  87 W3        30.00R
AIKEN          FAIR      36  32  87 W6        30.02R WCI  31
MANNING        FLURRIES  41  36  81 CALM      29.97R
COLUMBIA       CLOUDY    45  29  53 NW7       29.97R
SUMTER         CLEAR     41  37  84 NW5       29.94R
FLORENCE       CLOUDY    44  39  82 NW8       29.94R
MYRTLE BEACH   CLOUDY    46  43  87 W6        29.95R
N MYRTLE BEACH HVY RAIN  44  42  93 NW15G23   29.94R FOG

$$

GAZ063-065-086>088-099>101-113>116-118-119-134>141-150-281100-
...SOUTHEAST GEORGIA...

CITY           SKY/WX    TMP DP  RH WIND       PRES   REMARKS
SAVANNAH ARPT  CLEAR     45  37  73 NW6       30.00R
HUNTER AAF     CLEAR     43  40  88 W8        29.98R
FORT STEWART   CLEAR     44  33  67 W7        30.00R
STATESBORO     CLEAR     42  34  71 NW8       30.02R
SYLVANIA       SUNNY     42  36  76 NW8       30.02R
CLAXTON        FAIR      43  34  70 W3        30.03R

...CSRA...CENTRAL AND FAR SOUTHEAST GEORGIA...

CITY           SKY/WX    TMP DP  RH WIND       PRES   REMARKS
THOMSON        CLEAR     40  33  76 CALM      30.06R
AUGUSTA-BUSH   CLEAR     39  31  72 NW7       30.00R WCI  34
AUGUSTA-DANIEL CLEAR     42  29  59 W7        30.00R
SWAINSBORO     FAIR      43  27  52 W5        30.04R
VIDALIA        CLEAR     43  34  70 W3        30.04R
EASTMAN        FAIR      42  36  78 NW3       30.08R
HAZLEHURST     FAIR      43  36  75 NW3       30.04R
ALMA           CLEAR     44  33  65 NW6       30.04R
WAYCROSS       CLEAR     45  37  73 NW3       30.05R
JESUP          FAIR      45  37  76 NW5       30.05R
BAXLEY         FAIR      43  36  75 NW3       30.04S
BRUNSWICK      CLEAR     45  36  70 W6        30.05R
SAINT SIMONS   CLEAR     47  35  63 W7        30.02R

$$

SCZ027-028-034-036>038-045-046-048>050-GAZ119-141-281100-
...LAKE AND SUPPLEMENTAL COASTAL OBSERVATIONS...

STATION/POSITION TIME  TEMP    WIND        PRES    WAVE   SWELL
                       AIR SEA DIR/SP/G            HT/PER HT/PER/DIR
                 (UTC) (F)     (DEG/KT/KT) (MB)    (FT/S) (FT/S/D)
UPR LAKE MARION  NOT AVBL
WINYAH BAY       0945   46     290/  6     1012.0R
LAKE MURRAY      1000   42     310/  1/  8 1014.6R
ACE BASIN NERRS  NOT AVBL
FORT PULASKI     1000   48 60  300/ 11/ 13 1016.2R
SAPELO ISLAND    1000   48     270/  8     1016.0R

$$

ANZ835-935-AMZ111-154-330-350-352-354-370-450-454-472-281100-
...C-MAN AND BUOY OBSERVATIONS...

STATION/POSITION TIME  TEMP    WIND        PRES    WAVE   SWELL
                       AIR SEA DIR/SP/G            HT/PER HT/PER/DIR
                 (UTC) (F)     (DEG/KT/KT) (MB)    (FT/S) (FT/S/D)
BUOY 41004       0950   53 68  300/ 16/ 19 1012.9R   5/ 7   2/ 8
BUOY 41008       0950   53 60  320/ 19/ 23 1015.2R   3/ 4   2/130/ 9
FOLLY BEACH CMAN 1000   46     300/  6/ 10 1014.5R
CAPERS NEARSHORE 0900   49     300/ 14/ 16   N/A
FRIPP NEARSHORE  0900   51     310/ 14/ 16 1014.1R


STATION/POSITION TIME  TEMP    WIND        PRES    WAVE   SWELL
                       AIR SEA DIR/SP/G            HT/PER HT/PER/DIR
                 (UTC) (F)     (DEG/KT/KT) (MB)    (FT/S) (FT/S/D)
5E ST. MARYS GA  0921      60                N/A     3/ 3
FRYING PAN BUOY  0950   51 65  320/ 17/ 23 1012.2R   6/ 7
BUOY 41025       NOT AVBL
CAPE LOOKOUT NC  1000   43     340/ 15/ 18 1011.2R
BUOY 41002       0950   64 69  290/ 23/ 31 1008.0R  14/ 8
BUOY 41010       0920   67 75  310/ 25/ 31 1013.0R
ST AUGUSTINE FL  1000   49 59  300/  6/  7 1018.1R


$$



USA.gov is the U.S. government's official web portal to all federal, state and local government web resources and services.